Dades meteomassalio
Diari Summary for Juliol 12, 2017 Units:  Metric    English   Both
« Previous Day
Next Day »
Diari Semanal Mensual Anual Personalitzat
  Maxima: Minima: Mijana:
Temperatura: 38.0 °C 16.7 °C 28.3 °C
Rosada: 20.1 °C 11.3 °C 16.2 °C
Humitat: 87 % 21 % 54 %
Velocitat del vent: 20.4 km/h 0.0 km/h 5.4 km/h
Racha vent: 20.4 km/h - -
Vent:- - South
Pressio: 1016.8 hPa 1013.8 hPa -
Pluja: 0.0 mm    
Historical Graphs
 
 
Tabular Data for Juliol 12, 2017
Time Temperature Dew Point Pressure Wind Wind Speed Wind Gust Humidity Rainfall Rate (Hourly) solar Conditions
00:00 25.6 °C 19.5 °C 1014.8 hPa Calm     69 % 0.0 mm 0.0 W/m2 CLR
00:05 25.4 °C 19.3 °C 1014.8 hPa Calm     69 % 0.0 mm 0.0 W/m2 CLR
00:10 25.2 °C 19.3 °C 1014.8 hPa Calm     70 % 0.0 mm 0.0 W/m2 CLR
00:15 25.0 °C 19.6 °C 1014.8 hPa Calm     72 % 0.0 mm 0.0 W/m2 CLR
00:20 24.8 °C 19.4 °C 1014.8 hPa Calm     72 % 0.0 mm 0.0 W/m2 CLR
00:25 24.7 °C 19.1 °C 1014.8 hPa Calm     71 % 0.0 mm 0.0 W/m2 CLR
00:30 24.6 °C 18.8 °C 1014.8 hPa Calm     70 % 0.0 mm 0.0 W/m2 CLR
00:35 24.7 °C 19.1 °C 1014.8 hPa Calm     71 % 0.0 mm 0.0 W/m2 CLR
00:40 24.6 °C 19.2 °C 1014.8 hPa Calm     72 % 0.0 mm 0.0 W/m2 CLR
00:45 24.6 °C 18.9 °C 1014.8 hPa Calm     71 % 0.0 mm 0.0 W/m2 CLR
00:50 24.4 °C 18.6 °C 1014.8 hPa Calm     70 % 0.0 mm 0.0 W/m2 CLR
00:55 24.4 °C 18.6 °C 1014.8 hPa Calm     70 % 0.0 mm 0.0 W/m2 CLR
01:00 24.3 °C 18.7 °C 1014.8 hPa Calm     71 % 0.0 mm 0.0 W/m2 CLR
01:05 24.3 °C 18.2 °C 1014.8 hPa Calm     69 % 0.0 mm 0.0 W/m2 CLR
01:10 24.3 °C 18.7 °C 1014.8 hPa Calm     71 % 0.0 mm 0.0 W/m2 CLR
01:15 23.9 °C 18.6 °C 1014.8 hPa Calm     72 % 0.0 mm 0.0 W/m2 CLR
01:20 23.6 °C 18.7 °C 1014.8 hPa Calm     74 % 0.0 mm 0.0 W/m2 CLR
01:25 23.3 °C 18.4 °C 1014.8 hPa Calm     74 % 0.0 mm 0.0 W/m2 CLR
01:30 23.1 °C 18.6 °C 1014.8 hPa Calm     76 % 0.0 mm 0.0 W/m2 CLR
01:35 22.8 °C 18.4 °C 1014.8 hPa Calm     76 % 0.0 mm 0.0 W/m2 CLR
01:40 22.7 °C 18.5 °C 1014.8 hPa Calm     77 % 0.0 mm 0.0 W/m2 CLR
01:45 22.6 °C 18.4 °C 1014.8 hPa Calm     77 % 0.0 mm 0.0 W/m2 CLR
01:50 22.4 °C 18.4 °C 1014.8 hPa Calm     78 % 0.0 mm 0.0 W/m2 CLR
01:55 22.2 °C 18.2 °C 1014.8 hPa Calm     78 % 0.0 mm 0.0 W/m2 CLR
02:00 22.1 °C 18.2 °C 1014.8 hPa Calm     79 % 0.0 mm 0.0 W/m2 CLR
02:05 21.9 °C 18.1 °C 1014.8 hPa Calm     79 % 0.0 mm 0.0 W/m2 CLR
02:10 21.7 °C 18.1 °C 1014.8 hPa Calm     80 % 0.0 mm 0.0 W/m2 CLR
02:15 21.6 °C 18.0 °C 1014.8 hPa Calm     80 % 0.0 mm 0.0 W/m2 CLR
02:20 21.6 °C 17.9 °C 1014.8 hPa Calm     80 % 0.0 mm 0.0 W/m2 CLR
02:22 21.6 °C 17.9 °C 1014.8 hPa Calm     80 % 0.0 mm 0.0 W/m2 CLR
02:27 21.4 °C 18.1 °C 1014.4 hPa Calm     81 % 0.0 mm 0.0 W/m2 CLR
02:32 21.3 °C 17.9 °C 1014.4 hPa Calm     81 % 0.0 mm 0.0 W/m2 CLR
02:37 21.3 °C 17.9 °C 1014.4 hPa Calm     81 % 0.0 mm 0.0 W/m2 CLR
02:42 21.2 °C 17.8 °C 1014.4 hPa Calm     81 % 0.0 mm 0.0 W/m2 CLR
02:47 21.1 °C 17.9 °C 1014.4 hPa Calm     82 % 0.0 mm 0.0 W/m2 CLR
02:52 20.9 °C 17.7 °C 1014.4 hPa Calm     82 % 0.0 mm 0.0 W/m2 CLR
02:57 20.7 °C 17.6 °C 1014.4 hPa Calm     82 % 0.0 mm 0.0 W/m2 CLR
03:02 20.6 °C 17.6 °C 1014.4 hPa Calm     83 % 0.0 mm 0.0 W/m2 CLR
03:07 20.4 °C 17.4 °C 1014.4 hPa Calm     83 % 0.0 mm 0.0 W/m2 CLR
03:12 20.3 °C 17.2 °C 1014.4 hPa Calm     82 % 0.0 mm 0.0 W/m2 CLR
03:17 20.2 °C 17.2 °C 1014.1 hPa Calm     83 % 0.0 mm 0.0 W/m2 CLR
03:22 20.1 °C 17.1 °C 1014.4 hPa Calm     83 % 0.0 mm 0.0 W/m2 CLR
03:27 20.0 °C 17.2 °C 1014.4 hPa Calm     84 % 0.0 mm 0.0 W/m2 CLR
03:32 19.9 °C 17.2 °C 1014.4 hPa Calm     84 % 0.0 mm 0.0 W/m2 CLR
03:37 19.9 °C 17.1 °C 1014.4 hPa Calm     84 % 0.0 mm 0.0 W/m2 CLR
03:42 19.8 °C 17.0 °C 1014.4 hPa Calm     84 % 0.0 mm 0.0 W/m2 CLR
03:47 19.7 °C 16.9 °C 1014.4 hPa Calm     84 % 0.0 mm 0.0 W/m2 CLR
03:52 19.6 °C 16.6 °C 1014.1 hPa Calm     83 % 0.0 mm 0.0 W/m2 CLR
03:57 19.4 °C 16.6 °C 1014.4 hPa Calm     84 % 0.0 mm 0.0 W/m2 CLR
04:02 19.3 °C 16.6 °C 1014.4 hPa Calm     84 % 0.0 mm 0.0 W/m2 CLR
04:07 19.3 °C 16.5 °C 1014.1 hPa Calm     84 % 0.0 mm 0.0 W/m2 CLR
04:12 19.2 °C 16.6 °C 1014.4 hPa Calm     85 % 0.0 mm 0.0 W/m2 CLR
04:17 19.1 °C 16.7 °C 1014.4 hPa Calm     86 % 0.0 mm 0.0 W/m2 CLR
04:18 19.1 °C 16.7 °C 1014.4 hPa Calm     86 % 0.0 mm 0.0 W/m2 CLR
04:23 18.9 °C 16.4 °C 1014.4 hPa Calm     85 % 0.0 mm 0.0 W/m2 CLR
04:28 18.8 °C 15.8 °C 1014.4 hPa Calm     83 % 0.0 mm 0.0 W/m2 CLR
04:33 18.8 °C 16.2 °C 1014.4 hPa Calm     85 % 0.0 mm 0.0 W/m2 CLR
04:38 18.8 °C 16.4 °C 1014.4 hPa Calm     86 % 0.0 mm 0.0 W/m2 CLR
04:43 18.7 °C 16.5 °C 1014.4 hPa Calm     87 % 0.0 mm 0.0 W/m2 CLR
04:48 18.6 °C 16.2 °C 1014.4 hPa Calm     86 % 0.0 mm 0.0 W/m2 CLR
04:53 18.6 °C 16.0 °C 1014.4 hPa Calm     85 % 0.0 mm 0.0 W/m2 CLR
04:58 18.6 °C 16.0 °C 1014.4 hPa Calm     85 % 0.0 mm 0.0 W/m2 CLR
05:03 18.5 °C 15.7 °C 1014.4 hPa Calm     84 % 0.0 mm 0.0 W/m2 CLR
05:08 18.4 °C 15.6 °C 1014.4 hPa Calm     84 % 0.0 mm 0.0 W/m2 CLR
05:13 18.4 °C 15.6 °C 1014.4 hPa Calm     84 % 0.0 mm 0.0 W/m2 CLR
05:18 18.3 °C 15.6 °C 1014.4 hPa Calm     84 % 0.0 mm 0.0 W/m2 CLR
05:23 18.2 °C 15.5 °C 1014.8 hPa Calm     84 % 0.0 mm 0.0 W/m2 CLR
05:28 18.2 °C 15.6 °C 1014.8 hPa Calm     85 % 0.0 mm 0.0 W/m2 CLR
05:33 18.1 °C 15.4 °C 1014.8 hPa Calm     84 % 0.0 mm 0.0 W/m2 CLR
05:38 17.9 °C 15.2 °C 1014.8 hPa Calm     84 % 0.0 mm 0.0 W/m2 CLR
05:43 17.7 °C 14.8 °C 1015.1 hPa Calm     83 % 0.0 mm 0.0 W/m2 CLR
05:48 17.7 °C 14.9 °C 1015.1 hPa Calm     84 % 0.0 mm 0.0 W/m2 CLR
05:53 17.6 °C 14.9 °C 1015.1 hPa Calm     84 % 0.0 mm 0.0 W/m2 CLR
05:59 17.5 °C 14.8 °C 1015.1 hPa Calm     84 % 0.0 mm 0.0 W/m2 CLR
06:04 17.4 °C 14.9 °C 1015.1 hPa Calm     85 % 0.0 mm 0.0 W/m2 CLR
06:09 17.3 °C 14.6 °C 1015.1 hPa Calm     84 % 0.0 mm 0.0 W/m2 CLR
06:14 17.3 °C 14.6 °C 1015.5 hPa Calm     84 % 0.0 mm 0.0 W/m2 CLR
06:19 17.3 °C 14.6 °C 1015.5 hPa Calm     84 % 0.0 mm 0.0 W/m2 CLR
06:24 17.2 °C 14.5 °C 1015.5 hPa Calm     84 % 0.0 mm 0.0 W/m2 CLR
06:29 17.1 °C 14.4 °C 1015.5 hPa Calm     84 % 0.0 mm 0.0 W/m2 OVC
06:34 17.0 °C 14.3 °C 1015.5 hPa Calm     84 % 0.0 mm 0.0 W/m2 OVC
06:39 16.8 °C 14.1 °C 1015.5 hPa Calm     84 % 0.0 mm 5.0 W/m2 OVC
06:44 16.8 °C 14.1 °C 1015.8 hPa Calm     84 % 0.0 mm 7.0 W/m2 OVC
06:49 16.7 °C 14.0 °C 1015.8 hPa Calm     84 % 0.0 mm 9.0 W/m2 BKN
06:54 16.7 °C 13.9 °C 1015.8 hPa Calm     84 % 0.0 mm 12.0 W/m2 BKN
06:59 16.7 °C 14.0 °C 1015.8 hPa Calm     84 % 0.0 mm 14.0 W/m2 BKN
07:04 16.7 °C 14.0 °C 1015.8 hPa Calm     84 % 0.0 mm 16.0 W/m2 BKN
07:09 16.8 °C 14.1 °C 1015.8 hPa Calm     84 % 0.0 mm 21.0 W/m2 BKN
07:14 16.9 °C 14.0 °C 1015.8 hPa Calm     83 % 0.0 mm 26.0 W/m2 BKN
07:19 17.1 °C 13.9 °C 1016.1 hPa Calm     82 % 0.0 mm 37.0 W/m2 BKN
07:24 17.2 °C 14.3 °C 1016.1 hPa Calm     83 % 0.0 mm 49.0 W/m2 SCT
07:29 17.4 °C 14.3 °C 1016.1 hPa Calm     82 % 0.0 mm 60.0 W/m2 SCT
07:34 17.6 °C 14.5 °C 1016.1 hPa Calm     82 % 0.0 mm 70.0 W/m2 FEW
07:39 17.8 °C 14.5 °C 1016.1 hPa Calm     81 % 0.0 mm 81.0 W/m2 FEW
07:44 18.2 °C 14.8 °C 1016.1 hPa Calm     81 % 0.0 mm 95.0 W/m2 FEW
07:49 18.6 °C 15.1 °C 1016.1 hPa Calm     80 % 0.0 mm 105.0 W/m2 CLR
07:54 19.1 °C 15.1 °C 1016.1 hPa Calm     78 % 0.0 mm 123.0 W/m2 CLR
07:59 19.4 °C 15.4 °C 1016.1 hPa Calm     78 % 0.0 mm 141.0 W/m2 CLR
08:04 19.8 °C 16.1 °C 1016.5 hPa Calm     79 % 0.0 mm 155.0 W/m2 CLR
08:09 20.3 °C 16.7 °C 1016.5 hPa Calm     80 % 0.0 mm 171.0 W/m2 CLR
08:14 20.8 °C 17.1 °C 1016.5 hPa Calm     79 % 0.0 mm 190.0 W/m2 CLR
08:19 21.1 °C 16.7 °C 1016.5 hPa Calm     76 % 0.0 mm 206.0 W/m2 CLR
08:24 21.4 °C 16.6 °C 1016.5 hPa Calm     74 % 0.0 mm 220.0 W/m2 CLR
08:29 21.6 °C 16.9 °C 1016.5 hPa Calm     75 % 0.0 mm 239.0 W/m2 CLR
08:34 21.9 °C 17.1 °C 1016.5 hPa Calm     74 % 0.0 mm 253.0 W/m2 CLR
08:39 22.2 °C 17.6 °C 1016.5 hPa Calm     75 % 0.0 mm 267.0 W/m2 CLR
08:44 22.7 °C 18.7 °C 1016.5 hPa WSW 8.0 km/h 8.0 km/h 78 % 0.0 mm 281.0 W/m2 CLR
08:49 23.1 °C 18.4 °C 1016.5 hPa Calm     75 % 0.0 mm 297.0 W/m2 CLR
08:54 23.4 °C 18.8 °C 1016.5 hPa Calm     75 % 0.0 mm 316.0 W/m2 CLR
08:59 23.9 °C 19.8 °C 1016.5 hPa WNW 11.1 km/h 11.1 km/h 78 % 0.0 mm 332.0 W/m2 CLR
09:04 24.0 °C 19.7 °C 1016.5 hPa West 11.3 km/h 11.3 km/h 77 % 0.0 mm 346.0 W/m2 CLR
09:09 23.9 °C 19.7 °C 1016.8 hPa West 11.1 km/h 11.1 km/h 77 % 0.0 mm 364.0 W/m2 CLR
09:14 24.1 °C 19.6 °C 1016.8 hPa West 8.0 km/h 8.0 km/h 76 % 0.0 mm 381.0 W/m2 CLR
09:15 24.1 °C 19.6 °C 1016.8 hPa West 6.4 km/h 7.6 km/h 76 % 0.0 mm 381.0 W/m2 CLR
09:20 24.2 °C 19.7 °C 1016.8 hPa West 13.0 km/h 13.0 km/h 76 % 0.0 mm 394.0 W/m2 CLR
09:25 24.3 °C 19.6 °C 1016.5 hPa WNW 7.4 km/h 7.4 km/h 75 % 0.0 mm 411.0 W/m2 CLR
09:30 24.6 °C 19.6 °C 1016.8 hPa WNW 7.4 km/h 7.4 km/h 74 % 0.0 mm 431.0 W/m2 CLR
09:35 24.9 °C 19.9 °C 1016.8 hPa WSW 5.6 km/h 5.6 km/h 74 % 0.0 mm 446.0 W/m2 CLR
09:36 24.9 °C 19.8 °C 1016.5 hPa Calm     73 % 0.0 mm 446.0 W/m2 CLR
09:41 25.3 °C 19.9 °C 1016.5 hPa WSW 3.7 km/h   72 % 0.0 mm 464.0 W/m2 CLR
09:46 25.6 °C 20.1 °C 1016.5 hPa NW 3.7 km/h   72 % 0.0 mm 480.0 W/m2 CLR
09:51 25.7 °C 19.8 °C 1016.8 hPa North 4.8 km/h 4.8 km/h 70 % 0.0 mm 496.0 W/m2 CLR
09:56 25.9 °C 19.8 °C 1016.8 hPa NW 8.0 km/h 8.0 km/h 69 % 0.0 mm 508.0 W/m2 CLR
10:01 26.2 °C 19.6 °C 1016.8 hPa NW 14.5 km/h 14.5 km/h 67 % 0.0 mm 526.0 W/m2 CLR
10:06 26.4 °C 19.8 °C 1016.5 hPa Calm     67 % 0.0 mm 540.0 W/m2 CLR
10:11 26.6 °C 19.4 °C 1016.5 hPa Calm     65 % 0.0 mm 557.0 W/m2 CLR
10:16 26.7 °C 19.6 °C 1016.5 hPa NNW 6.4 km/h 6.4 km/h 65 % 0.0 mm 570.0 W/m2 CLR
10:21 26.8 °C 19.4 °C 1016.5 hPa North 5.6 km/h 5.6 km/h 64 % 0.0 mm 584.0 W/m2 CLR
10:26 27.0 °C 19.3 °C 1016.5 hPa North 5.6 km/h 5.6 km/h 63 % 0.0 mm 598.0 W/m2 CLR
10:31 27.3 °C 19.4 °C 1016.5 hPa NW 7.4 km/h 7.4 km/h 62 % 0.0 mm 610.0 W/m2 CLR
10:36 27.6 °C 19.3 °C 1016.5 hPa NNW 5.6 km/h 5.6 km/h 61 % 0.0 mm 621.0 W/m2 CLR
10:41 27.8 °C 19.1 °C 1016.5 hPa NNW 1.9 km/h 1.9 km/h 59 % 0.0 mm 636.0 W/m2 CLR
10:46 28.1 °C 18.5 °C 1016.5 hPa Calm     56 % 0.0 mm 654.0 W/m2 CLR
10:51 28.4 °C 18.5 °C 1016.5 hPa NNW 5.6 km/h 5.6 km/h 55 % 0.0 mm 664.0 W/m2 CLR
10:56 28.6 °C 18.1 °C 1016.5 hPa Calm     53 % 0.0 mm 675.0 W/m2 CLR
11:00 28.9 °C 18.4 °C 1016.5 hPa NW 9.7 km/h 9.7 km/h 53 % 0.0 mm 686.0 W/m2 CLR
11:05 28.9 °C 18.1 °C 1016.5 hPa WNW 13.0 km/h 13.0 km/h 52 % 0.0 mm 700.0 W/m2 CLR
11:10 28.8 °C 18.3 °C 1016.5 hPa NNW 11.1 km/h 11.1 km/h 53 % 0.0 mm 710.0 W/m2 CLR
11:15 28.9 °C 17.4 °C 1016.5 hPa Calm     50 % 0.0 mm 721.0 W/m2 CLR
11:20 29.1 °C 17.6 °C 1016.5 hPa WNW 11.3 km/h 11.3 km/h 50 % 0.0 mm 735.0 W/m2 CLR
11:25 29.4 °C 17.9 °C 1016.5 hPa NNW 9.3 km/h 9.3 km/h 50 % 0.0 mm 744.0 W/m2 CLR
11:30 29.5 °C 17.3 °C 1016.5 hPa NW 1.6 km/h 1.6 km/h 48 % 0.0 mm 756.0 W/m2 CLR
11:35 29.5 °C 17.7 °C 1016.5 hPa WNW 3.7 km/h 3.7 km/h 49 % 0.0 mm 770.0 W/m2 CLR
11:40 29.6 °C 18.1 °C 1016.5 hPa NNE 16.7 km/h 16.7 km/h 50 % 0.0 mm 779.0 W/m2 CLR
11:45 29.8 °C 18.6 °C 1016.5 hPa North 13.0 km/h 13.0 km/h 51 % 0.0 mm 788.0 W/m2 CLR
11:50 29.8 °C 18.6 °C 1016.5 hPa North 14.8 km/h 14.8 km/h 51 % 0.0 mm 796.0 W/m2 CLR
11:55 29.8 °C 18.9 °C 1016.5 hPa North 9.7 km/h 9.7 km/h 52 % 0.0 mm 807.0 W/m2 CLR
12:00 30.1 °C 18.6 °C 1016.5 hPa NW 9.3 km/h 9.3 km/h 50 % 0.0 mm 816.0 W/m2 CLR
12:05 30.4 °C 18.5 °C 1016.5 hPa NNE 11.1 km/h 11.1 km/h 49 % 0.0 mm 824.0 W/m2 CLR
12:06 30.4 °C 18.5 °C 1016.5 hPa East 3.7 km/h   49 % 0.0 mm 826.0 W/m2 CLR
12:11 30.6 °C 19.0 °C 1016.1 hPa North 3.7 km/h 3.7 km/h 50 % 0.0 mm 835.0 W/m2 CLR
12:16 30.8 °C 18.2 °C 1016.1 hPa North 13.0 km/h 13.0 km/h 47 % 0.0 mm 847.0 W/m2 CLR
12:21 30.8 °C 18.2 °C 1016.1 hPa ENE 7.4 km/h 7.4 km/h 47 % 0.0 mm 854.0 W/m2 CLR
12:26 31.1 °C 18.4 °C 1016.1 hPa NNE 7.4 km/h 7.4 km/h 47 % 0.0 mm 860.0 W/m2 CLR
12:31 31.4 °C 18.1 °C 1016.1 hPa NNE 13.0 km/h 13.0 km/h 45 % 0.0 mm 868.0 W/m2 CLR
12:36 31.6 °C 17.4 °C 1016.1 hPa NNE 11.3 km/h 11.3 km/h 43 % 0.0 mm 875.0 W/m2 CLR
12:41 31.4 °C 17.3 °C 1016.1 hPa NNW 9.3 km/h 9.3 km/h 43 % 0.0 mm 881.0 W/m2 CLR
12:46 31.6 °C 17.5 °C 1016.1 hPa NE 11.1 km/h 11.1 km/h 43 % 0.0 mm 886.0 W/m2 CLR
12:51 31.7 °C 17.2 °C 1016.1 hPa ENE 11.1 km/h 11.1 km/h 42 % 0.0 mm 895.0 W/m2 CLR
12:56 31.8 °C 17.3 °C 1016.1 hPa NE 9.3 km/h 9.3 km/h 42 % 0.0 mm 898.0 W/m2 CLR
13:01 32.2 °C 17.6 °C 1016.1 hPa NNW 5.6 km/h 5.6 km/h 42 % 0.0 mm 904.0 W/m2 CLR
13:06 32.6 °C 17.2 °C 1016.1 hPa NE 11.3 km/h 11.3 km/h 40 % 0.0 mm 907.0 W/m2 CLR
13:11 32.6 °C 17.3 °C 1016.1 hPa North 3.7 km/h   40 % 0.0 mm 916.0 W/m2 CLR
13:16 32.5 °C 16.8 °C 1016.1 hPa NNE 13.0 km/h 13.0 km/h 39 % 0.0 mm 919.0 W/m2 CLR
13:21 32.3 °C 16.9 °C 1015.8 hPa Calm     40 % 0.0 mm 925.0 W/m2 CLR
13:26 32.4 °C 16.7 °C 1015.8 hPa NE 14.8 km/h 14.8 km/h 39 % 0.0 mm 926.0 W/m2 CLR
13:31 32.8 °C 16.7 °C 1015.8 hPa NNE 11.1 km/h 11.1 km/h 38 % 0.0 mm 928.0 W/m2 CLR
13:36 33.1 °C 16.4 °C 1015.8 hPa NNE 16.7 km/h 16.7 km/h 37 % 0.0 mm 933.0 W/m2 CLR
13:41 33.0 °C 16.4 °C 1015.8 hPa NE 9.3 km/h 9.3 km/h 37 % 0.0 mm 937.0 W/m2 CLR
13:46 33.1 °C 16.4 °C 1015.8 hPa North 18.5 km/h 18.5 km/h 37 % 0.0 mm 935.0 W/m2 CLR
13:51 33.1 °C 16.4 °C 1015.8 hPa North 8.0 km/h 8.0 km/h 37 % 0.0 mm 939.0 W/m2 CLR
13:56 33.3 °C 15.8 °C 1015.8 hPa NNW 14.8 km/h 14.8 km/h 35 % 0.0 mm 940.0 W/m2 CLR
14:01 33.6 °C 15.6 °C 1015.5 hPa North 13.0 km/h 13.0 km/h 34 % 0.0 mm 939.0 W/m2 CLR
14:06 33.8 °C 16.2 °C 1015.5 hPa NNE 11.1 km/h 11.1 km/h 35 % 0.0 mm 935.0 W/m2 CLR
14:11 33.8 °C 16.6 °C 1015.5 hPa Calm     36 % 0.0 mm 933.0 W/m2 CLR
14:16 34.1 °C 16.4 °C 1015.5 hPa NE 7.4 km/h 7.4 km/h 35 % 0.0 mm 930.0 W/m2 CLR
14:21 34.3 °C 16.2 °C 1015.5 hPa ENE 7.4 km/h 7.4 km/h 34 % 0.0 mm 928.0 W/m2 CLR
14:26 34.4 °C 16.3 °C 1015.5 hPa NW 13.0 km/h 13.0 km/h 34 % 0.0 mm 930.0 W/m2 CLR
14:31 34.4 °C 17.2 °C 1015.5 hPa ENE 11.1 km/h 11.1 km/h 36 % 0.0 mm 925.0 W/m2 CLR
14:36 34.3 °C 17.1 °C 1015.5 hPa NNE 11.1 km/h 11.1 km/h 36 % 0.0 mm 921.0 W/m2 CLR
14:41 34.3 °C 17.6 °C 1015.5 hPa NE 18.5 km/h 18.5 km/h 37 % 0.0 mm 918.0 W/m2 CLR
14:46 34.5 °C 17.7 °C 1015.5 hPa NNE 16.1 km/h 16.1 km/h 37 % 0.0 mm 919.0 W/m2 CLR
14:51 34.6 °C 16.9 °C 1015.5 hPa NE 5.6 km/h   35 % 0.0 mm 911.0 W/m2 CLR
14:56 34.9 °C 17.6 °C 1015.5 hPa North 11.3 km/h 11.3 km/h 36 % 0.0 mm 914.0 W/m2 CLR
15:01 34.9 °C 16.7 °C 1015.1 hPa NE 14.5 km/h 14.5 km/h 34 % 0.0 mm 905.0 W/m2 CLR
15:06 35.1 °C 16.4 °C 1015.5 hPa NNW 14.8 km/h 14.8 km/h 33 % 0.0 mm 898.0 W/m2 CLR
15:11 35.1 °C 16.9 °C 1015.1 hPa North 11.1 km/h 11.1 km/h 34 % 0.0 mm 893.0 W/m2 CLR
15:16 35.3 °C 17.1 °C 1015.1 hPa NE 8.0 km/h 8.0 km/h 34 % 0.0 mm 893.0 W/m2 CLR
15:21 35.6 °C 17.3 °C 1015.1 hPa NNE 16.7 km/h 16.7 km/h 34 % 0.0 mm 884.0 W/m2 CLR
15:26 35.8 °C 16.5 °C 1015.1 hPa NNE 5.6 km/h   32 % 0.0 mm 882.0 W/m2 CLR
15:31 35.6 °C 17.3 °C 1015.1 hPa Calm     34 % 0.0 mm 877.0 W/m2 CLR
15:36 35.5 °C 15.8 °C 1015.1 hPa Calm     31 % 0.0 mm 867.0 W/m2 CLR
15:41 35.8 °C 17.9 °C 1015.1 hPa NNE 13.0 km/h 13.0 km/h 35 % 0.0 mm 854.0 W/m2 CLR
15:46 35.8 °C 17.5 °C 1015.1 hPa South 3.7 km/h   34 % 0.0 mm 846.0 W/m2 CLR
15:51 35.8 °C 15.0 °C 1015.1 hPa North 11.1 km/h 11.1 km/h 29 % 0.0 mm 849.0 W/m2 CLR
15:56 36.0 °C 17.7 °C 1015.1 hPa NE 7.4 km/h 7.4 km/h 34 % 0.0 mm 833.0 W/m2 CLR
16:01 36.4 °C 17.6 °C 1015.1 hPa ENE 5.6 km/h 5.6 km/h 33 % 0.0 mm 828.0 W/m2 CLR
16:06 36.4 °C 16.6 °C 1015.1 hPa ENE 13.0 km/h 13.0 km/h 31 % 0.0 mm 819.0 W/m2 CLR
16:11 36.3 °C 16.4 °C 1014.8 hPa NE 5.6 km/h   31 % 0.0 mm 810.0 W/m2 CLR
16:16 36.4 °C 16.1 °C 1014.8 hPa ENE 7.4 km/h   30 % 0.0 mm 798.0 W/m2 CLR
16:21 36.6 °C 16.2 °C 1014.8 hPa ENE 16.1 km/h 16.1 km/h 30 % 0.0 mm 789.0 W/m2 CLR
16:26 36.8 °C 15.8 °C 1014.8 hPa NNE 18.5 km/h 18.5 km/h 29 % 0.0 mm 782.0 W/m2 CLR
16:31 36.8 °C 15.3 °C 1014.8 hPa NNE 11.1 km/h 11.1 km/h 28 % 0.0 mm 768.0 W/m2 CLR
16:36 36.7 °C 15.8 °C 1014.8 hPa North 9.3 km/h 9.3 km/h 29 % 0.0 mm 756.0 W/m2 CLR
16:41 36.7 °C 16.3 °C 1014.8 hPa North 9.3 km/h 9.3 km/h 30 % 0.0 mm 751.0 W/m2 CLR
16:46 36.7 °C 14.1 °C 1014.8 hPa NW 3.7 km/h   26 % 0.0 mm 745.0 W/m2 CLR
16:51 37.0 °C 14.3 °C 1014.8 hPa Calm     26 % 0.0 mm 733.0 W/m2 CLR
16:56 37.1 °C 16.1 °C 1014.8 hPa ENE 11.3 km/h 11.3 km/h 29 % 0.0 mm 717.0 W/m2 CLR
17:02 36.7 °C 15.8 °C 1014.4 hPa NE 7.4 km/h 7.4 km/h 29 % 0.0 mm 703.0 W/m2 CLR
17:07 36.7 °C 15.8 °C 1014.8 hPa East 9.7 km/h 9.7 km/h 29 % 0.0 mm 694.0 W/m2 CLR
17:12 36.6 °C 15.7 °C 1014.4 hPa WNW 5.6 km/h   29 % 0.0 mm 682.0 W/m2 CLR
17:17 36.7 °C 15.7 °C 1014.4 hPa ENE 9.7 km/h 9.7 km/h 29 % 0.0 mm 668.0 W/m2 CLR
17:22 36.6 °C 15.2 °C 1014.4 hPa ENE 3.7 km/h 3.7 km/h 28 % 0.0 mm 652.0 W/m2 CLR
17:27 36.7 °C 15.2 °C 1014.4 hPa East 6.4 km/h 6.4 km/h 28 % 0.0 mm 643.0 W/m2 CLR
17:32 36.7 °C 15.7 °C 1014.4 hPa NNE 9.3 km/h 9.3 km/h 29 % 0.0 mm 631.0 W/m2 CLR
17:37 37.1 °C 15.5 °C 1014.4 hPa NE 7.4 km/h 7.4 km/h 28 % 0.0 mm 615.0 W/m2 CLR
17:42 37.2 °C 13.8 °C 1014.4 hPa NNW 11.1 km/h 11.1 km/h 25 % 0.0 mm 608.0 W/m2 CLR
17:47 37.3 °C 15.8 °C 1014.1 hPa NNE 9.3 km/h 9.3 km/h 28 % 0.0 mm 592.0 W/m2 CLR
17:52 37.2 °C 14.4 °C 1014.4 hPa East 11.1 km/h 11.1 km/h 26 % 0.0 mm 575.0 W/m2 CLR
17:57 36.9 °C 14.3 °C 1014.1 hPa SE 5.6 km/h 5.6 km/h 26 % 0.0 mm 563.0 W/m2 CLR
18:02 36.8 °C 14.8 °C 1014.1 hPa NE 5.6 km/h 5.6 km/h 27 % 0.0 mm 548.0 W/m2 CLR
18:07 37.0 °C 13.1 °C 1014.1 hPa NNW 13.0 km/h 13.0 km/h 24 % 0.0 mm 534.0 W/m2 CLR
18:12 37.3 °C 12.7 °C 1014.1 hPa North 11.1 km/h 11.1 km/h 23 % 0.0 mm 526.0 W/m2 CLR
18:17 37.4 °C 12.8 °C 1014.1 hPa NE 9.3 km/h 9.3 km/h 23 % 0.0 mm 508.0 W/m2 CLR
18:22 37.5 °C 12.8 °C 1014.1 hPa Calm     23 % 0.0 mm 494.0 W/m2 CLR
18:27 37.6 °C 12.3 °C 1014.1 hPa North 8.0 km/h 8.0 km/h 22 % 0.0 mm 478.0 W/m2 CLR
18:32 37.7 °C 12.4 °C 1014.1 hPa North 7.4 km/h 7.4 km/h 22 % 0.0 mm 466.0 W/m2 CLR
18:37 37.7 °C 12.3 °C 1014.1 hPa NNE 14.8 km/h 14.8 km/h 22 % 0.0 mm 448.0 W/m2 CLR
18:42 37.6 °C 12.2 °C 1014.1 hPa North 5.6 km/h 5.6 km/h 22 % 0.0 mm 432.0 W/m2 CLR
18:47 37.7 °C 12.3 °C 1014.1 hPa North 7.4 km/h 7.4 km/h 22 % 0.0 mm 417.0 W/m2 CLR
18:52 37.8 °C 12.4 °C 1014.1 hPa NNW 1.9 km/h 1.9 km/h 22 % 0.0 mm 403.0 W/m2 CLR
18:57 38.0 °C 12.6 °C 1013.8 hPa ENE 9.3 km/h 9.3 km/h 22 % 0.0 mm 383.0 W/m2 CLR
19:02 37.9 °C 12.6 °C 1013.8 hPa NNE 13.0 km/h 13.0 km/h 22 % 0.0 mm 367.0 W/m2 CLR
19:07 37.6 °C 12.3 °C 1013.8 hPa NNE 14.8 km/h 14.8 km/h 22 % 0.0 mm 352.0 W/m2 CLR
19:12 37.6 °C 12.2 °C 1013.8 hPa North 5.6 km/h 5.6 km/h 22 % 0.0 mm 338.0 W/m2 CLR
19:18 37.6 °C 12.2 °C 1014.1 hPa North 3.7 km/h 3.7 km/h 22 % 0.0 mm 320.0 W/m2 CLR
19:23 37.6 °C 12.3 °C 1014.1 hPa NE 7.4 km/h 7.4 km/h 22 % 0.0 mm 306.0 W/m2 CLR
19:28 37.6 °C 12.2 °C 1014.1 hPa NE 5.6 km/h 5.6 km/h 22 % 0.0 mm 287.0 W/m2 CLR
19:33 37.4 °C 12.1 °C 1014.1 hPa NE 5.6 km/h 5.6 km/h 22 % 0.0 mm 272.0 W/m2 CLR
19:38 37.3 °C 11.3 °C 1014.1 hPa ENE 7.4 km/h 7.4 km/h 21 % 0.0 mm 257.0 W/m2 CLR
19:43 37.0 °C 11.8 °C 1014.1 hPa Calm     22 % 0.0 mm 241.0 W/m2 CLR
19:44 37.0 °C 11.8 °C 1014.1 hPa Calm     22 % 0.0 mm 236.0 W/m2 CLR
19:49 37.1 °C 11.8 °C 1014.1 hPa ENE 3.2 km/h 3.2 km/h 22 % 0.0 mm 220.0 W/m2 CLR
19:54 37.1 °C 12.5 °C 1014.1 hPa NE 8.0 km/h 8.0 km/h 23 % 0.0 mm 204.0 W/m2 CLR
19:59 37.1 °C 11.8 °C 1014.1 hPa NNE 11.1 km/h 11.1 km/h 22 % 0.0 mm 186.0 W/m2 CLR
20:04 37.1 °C 11.8 °C 1014.1 hPa North 5.6 km/h 5.6 km/h 22 % 0.0 mm 169.0 W/m2 CLR
20:09 37.3 °C 12.0 °C 1014.1 hPa Calm     22 % 0.0 mm 153.0 W/m2 CLR
20:14 37.3 °C 12.0 °C 1014.1 hPa Calm   0.2 km/h 22 % 0.0 mm 137.0 W/m2 CLR
20:19 37.2 °C 12.6 °C 1014.1 hPa NW 5.6 km/h 5.6 km/h 23 % 0.0 mm 120.0 W/m2 CLR
20:24 37.1 °C 12.5 °C 1014.1 hPa NNW 3.7 km/h   23 % 0.0 mm 105.0 W/m2 CLR
20:29 37.1 °C 13.1 °C 1014.1 hPa Calm     24 % 0.0 mm 91.0 W/m2 CLR
20:34 37.1 °C 12.5 °C 1014.1 hPa Calm     23 % 0.0 mm 79.0 W/m2 FEW
20:39 36.9 °C 13.1 °C 1014.1 hPa Calm     24 % 0.0 mm 65.0 W/m2 FEW
20:44 36.7 °C 12.8 °C 1014.1 hPa Calm     24 % 0.0 mm 53.0 W/m2 SCT
20:49 36.4 °C 13.3 °C 1014.4 hPa NW 5.6 km/h   25 % 0.0 mm 39.0 W/m2 BKN
20:54 36.1 °C 12.9 °C 1014.4 hPa NNW 1.9 km/h   25 % 0.0 mm 32.0 W/m2 BKN
20:59 35.7 °C 13.2 °C 1014.4 hPa Calm     26 % 0.0 mm 21.0 W/m2 BKN
21:04 35.5 °C 13.6 °C 1014.4 hPa NW 3.2 km/h 3.2 km/h 27 % 0.0 mm 21.0 W/m2 BKN
21:09 35.1 °C 13.3 °C 1014.4 hPa NW 3.7 km/h 3.7 km/h 27 % 0.0 mm 16.0 W/m2 BKN
21:14 34.8 °C 13.6 °C 1014.4 hPa NNW 3.7 km/h 3.7 km/h 28 % 0.0 mm 12.0 W/m2 BKN
21:19 34.5 °C 13.3 °C 1014.4 hPa NW 5.6 km/h 5.6 km/h 28 % 0.0 mm 11.0 W/m2 BKN
21:25 34.2 °C 14.2 °C 1014.4 hPa NW 1.9 km/h   30 % 0.0 mm 7.0 W/m2 BKN
21:30 33.6 °C 14.2 °C 1014.4 hPa NW 7.4 km/h 7.4 km/h 31 % 0.0 mm 5.0 W/m2 OVC
21:35 33.1 °C 13.7 °C 1014.4 hPa NW 9.3 km/h 9.3 km/h 31 % 0.0 mm 0.0 W/m2 OVC
21:40 32.9 °C 14.0 °C 1014.8 hPa NW 5.6 km/h 6.3 km/h 32 % 0.0 mm 0.0 W/m2 OVC
21:45 33.1 °C 14.2 °C 1014.8 hPa NW 7.4 km/h 7.4 km/h 32 % 0.0 mm 0.0 W/m2 CLR
21:50 32.9 °C 14.0 °C 1014.8 hPa NNW 9.3 km/h 9.3 km/h 32 % 0.0 mm 0.0 W/m2 CLR
21:55 32.7 °C 13.9 °C 1014.8 hPa NW 7.4 km/h 7.4 km/h 32 % 0.0 mm 0.0 W/m2 CLR
22:00 32.7 °C 13.9 °C 1015.1 hPa NW 11.1 km/h 11.1 km/h 32 % 0.0 mm 0.0 W/m2 CLR
22:05 32.9 °C 14.6 °C 1015.1 hPa NW 18.5 km/h 18.5 km/h 33 % 0.0 mm 0.0 W/m2 CLR
22:10 33.1 °C 14.7 °C 1015.1 hPa NW 18.5 km/h 18.5 km/h 33 % 0.0 mm 0.0 W/m2 CLR
22:15 32.9 °C 15.0 °C 1015.1 hPa NNW 16.7 km/h 16.7 km/h 34 % 0.0 mm 0.0 W/m2 CLR
22:20 32.8 °C 15.3 °C 1015.1 hPa NW 16.7 km/h 16.7 km/h 35 % 0.0 mm 0.0 W/m2 CLR
22:25 32.6 °C 15.2 °C 1015.5 hPa NW 16.7 km/h 16.7 km/h 35 % 0.0 mm 0.0 W/m2 CLR
22:30 32.5 °C 15.5 °C 1015.5 hPa NNW 19.3 km/h 19.3 km/h 36 % 0.0 mm 0.0 W/m2 CLR
22:35 32.2 °C 15.7 °C 1015.5 hPa NW 16.7 km/h 16.7 km/h 37 % 0.0 mm 0.0 W/m2 CLR
22:40 32.0 °C 15.9 °C 1015.5 hPa NW 14.8 km/h 14.8 km/h 38 % 0.0 mm 0.0 W/m2 CLR
22:45 31.7 °C 16.1 °C 1015.8 hPa NW 11.3 km/h 11.3 km/h 39 % 0.0 mm 0.0 W/m2 CLR
22:50 31.6 °C 15.9 °C 1015.8 hPa NW 11.1 km/h 11.1 km/h 39 % 0.0 mm 0.0 W/m2 CLR
22:55 31.4 °C 15.8 °C 1015.8 hPa NNW 11.1 km/h 11.1 km/h 39 % 0.0 mm 0.0 W/m2 CLR
23:00 31.3 °C 15.7 °C 1015.8 hPa NW 13.0 km/h 13.0 km/h 39 % 0.0 mm 0.0 W/m2 CLR
23:05 31.3 °C 15.7 °C 1015.8 hPa NNW 20.4 km/h 20.4 km/h 39 % 0.0 mm 0.0 W/m2 CLR
23:10 31.4 °C 15.4 °C 1016.1 hPa NW 18.5 km/h 18.5 km/h 38 % 0.0 mm 0.0 W/m2 CLR
23:15 31.3 °C 15.7 °C 1016.1 hPa NW 13.0 km/h 13.0 km/h 39 % 0.0 mm 0.0 W/m2 CLR
23:20 31.1 °C 15.5 °C 1016.1 hPa NW 14.8 km/h 14.8 km/h 39 % 0.0 mm 0.0 W/m2 CLR
23:25 30.9 °C 15.7 °C 1016.1 hPa NW 18.5 km/h 18.5 km/h 40 % 0.0 mm 0.0 W/m2 CLR
23:30 30.6 °C 15.8 °C 1016.1 hPa NW 14.8 km/h 14.8 km/h 41 % 0.0 mm 0.0 W/m2 CLR
23:31 30.6 °C 15.8 °C 1016.1 hPa WNW 14.8 km/h 14.8 km/h 41 % 0.0 mm 0.0 W/m2 CLR
23:36 30.4 °C 15.7 °C 1016.1 hPa WNW 11.1 km/h 11.1 km/h 41 % 0.0 mm 0.0 W/m2 CLR
23:41 30.2 °C 15.1 °C 1016.1 hPa WNW 13.0 km/h 13.0 km/h 40 % 0.0 mm 0.0 W/m2 CLR
23:46 30.1 °C 15.4 °C 1016.5 hPa NW 16.1 km/h 16.1 km/h 41 % 0.0 mm 0.0 W/m2 CLR
23:51 30.0 °C 14.9 °C 1016.5 hPa WNW 9.3 km/h 9.3 km/h 40 % 0.0 mm 0.0 W/m2 CLR
23:56 29.9 °C 14.9 °C 1016.5 hPa WNW 5.6 km/h 5.6 km/h 40 % 0.0 mm 0.0 W/m2 CLR
Lo Temps de Massalio
Compliments of Weather Underground - 1.25 mb